Tel Aviv, Israel

12:27 PM IDT on July 23, 2017 (GMT +0300)
Ben Gurion

Weather History for LLBG - December, 2012

Change the Weather History Date:

Friday, December 14, 2012

  Actual Average Record
Temperature  
Mean Temperature 62 °F -  
Max Temperature 68 °F 63 °F 86 °F (2003)
Min Temperature 55 °F 49 °F 41 °F (2013)
Degree Days  
Heating Degree Days 4    
Growing Degree Days 12 (Base 50)    
Moisture  
Dew Point 51 °F    
Average Humidity 71    
Maximum Humidity 88    
Minimum Humidity 44    
Precipitation  
Precipitation 0.00 in - - ()
Sea Level Pressure  
Sea Level Pressure 30.15 in    
Wind  
Wind Speed 3 mph ()    
Max Wind Speed 8 mph    
Max Gust Speed -    
Visibility 6.2 miles    
Events      
Averages and records for this station are not official NWS values.
T = Trace of Precipitation, MM = Missing Value Source: Averaged Metar Reports

Daily Weather History Graph

Daily Weather History Graph

Search for Another Location

Airport or City:

Trip Planner

Search our weather history database for the weather conditions in past years. The results will help you decide how hot, cold, wet, or windy it might be!

Date:

Astronomy

Dec. 14, 2012 Rise Set
Actual Time 6:32 AM IST 4:37 PM IST
Civil Twilight 6:05 AM IST 5:04 PM IST
Nautical Twilight 5:35 AM IST 5:34 PM IST
Astronomical Twilight 5:05 AM IST 6:04 PM IST
Moon 7:21 AM IST (12/14) 6:02 PM IST (12/14)
Length of Visible Light 10h 58m
Length of Day
10h 04m
New Moon, 2% of the Moon is Illuminated
Dec 14
New Moon
Dec 20
First Quarter
Dec 28
Full
Jan 5
Last Quarter
Jan 11
New

Hourly Weather History & Observations

Time (IST) Temp. Dew Point Humidity Pressure Visibility Wind Dir Wind Speed Gust Speed Precip Events Conditions
12:50 AM 57.2 °F 51.8 °F 82% 30.12 in 6.2 mi SSE 3.5 mph - N/A   Scattered Clouds
1:50 AM 55.4 °F 50.0 °F 82% 30.12 in 6.2 mi ENE 2.3 mph - N/A   Scattered Clouds
2:50 AM 57.2 °F 51.8 °F 82% 30.12 in - East 2.3 mph - N/A   Clear
3:50 AM 55.4 °F 50.0 °F 82% 30.12 in 6.2 mi SE 3.5 mph - N/A   Mostly Cloudy
4:50 AM 55.4 °F 50.0 °F 82% 30.12 in 6.2 mi East 3.5 mph - N/A   Mostly Cloudy
5:50 AM 55.4 °F 51.8 °F 88% 30.12 in 6.2 mi ENE 2.3 mph - N/A   Mostly Cloudy
6:50 AM 57.2 °F 51.8 °F 82% 30.15 in 6.2 mi ESE 2.3 mph - N/A   Mostly Cloudy
7:50 AM 59.0 °F 53.6 °F 82% 30.15 in 6.2 mi East 2.3 mph - N/A   Mostly Cloudy
8:00 AM 58 °F 53 °F 79% 30.17 in 6 mi East 2.3 mph - -   Partly Cloudy
8:50 AM 60.8 °F 53.6 °F 77% 30.18 in 6.2 mi South 3.5 mph - N/A   Mostly Cloudy
9:50 AM 64.4 °F 53.6 °F 68% 30.18 in 6.2 mi SSE 4.6 mph - N/A   Scattered Clouds
10:50 AM 64.4 °F 51.8 °F 64% 30.15 in 6.2 mi Variable 1.2 mph - N/A   Mostly Cloudy
11:50 AM 66.2 °F 50.0 °F 56% 30.15 in 6.2 mi NW 4.6 mph - N/A   Mostly Cloudy
12:50 PM 66.2 °F 50.0 °F 56% 30.12 in 6.2 mi North 4.6 mph - N/A   Mostly Cloudy
1:50 PM 66.2 °F 50.0 °F 56% 30.12 in 6.2 mi NNW 4.6 mph - N/A   Mostly Cloudy
2:00 PM 66 °F 49 °F 44% 30.14 in 6 mi NNW 4.6 mph - -   Mostly Cloudy
2:50 PM 66.2 °F 51.8 °F 60% 30.12 in 6.2 mi WNW 8.1 mph - N/A   Mostly Cloudy
3:50 PM 66.2 °F 51.8 °F 60% 30.12 in 6.2 mi WNW 6.9 mph - N/A   Mostly Cloudy
4:50 PM 64.4 °F 46.4 °F 52% 30.15 in 6.2 mi WNW 3.5 mph - N/A   Partly Cloudy
5:50 PM 62.6 °F 46.4 °F 55% 30.15 in 6.2 mi Variable 1.2 mph - N/A   Partly Cloudy
6:50 PM 60.8 °F 50.0 °F 68% 30.15 in 6.2 mi ESE 3.5 mph - N/A   Scattered Clouds
7:50 PM 59.0 °F 50.0 °F 72% 30.18 in 6.2 mi ENE 2.3 mph - N/A   Scattered Clouds
8:00 PM 59 °F 50 °F 64% 30.18 in 6 mi ENE 2.3 mph - -   Partly Cloudy
8:50 PM 59.0 °F 50.0 °F 72% 30.18 in 6.2 mi ESE 3.5 mph - N/A   Partly Cloudy
9:50 PM 57.2 °F 51.8 °F 82% 30.18 in 6.2 mi East 2.3 mph - N/A   Mostly Cloudy
10:50 PM 59.0 °F 51.8 °F 77% 30.18 in 6.2 mi SE 2.3 mph - N/A   Scattered Clouds
11:50 PM 57.2 °F 51.8 °F 82% 30.15 in 6.2 mi East 3.5 mph - N/A   Partly Cloudy